Location: Brunembert
(50.7122°N, 1.8935°E)
Time: 03:05:34
(UTC+00:00)

Cosmos 1500 Rocket - Pass Details

Date: 29 July 2021
Orbit: 602 x 632 km, 82.5° (Epoch: 18 September)

Event Time Altitude Azimuth Distance (km) Brightness Sun altitude
Exits shadow 21:22:33 16° 116° (ESE) 1,614 5.2 -12.7°
Maximum altitude 21:24:19 20° 85° (E) 1,433 5.1 -12.9°
Drops below altitude 10° 21:27:35 10° 38° (NE) 2,010 6.4 -13.2°
Sets 21:30:17 0° 22° (NNE) 2,928 7.5 -13.4°
